FW8607 Weather Reports


Display with metric or nautical units.
time (UTC)temp
F
wind
direction
speed
MPH
gust
MPH
rain 1hr
in
rain 24hr
in
rain mn
in
humidity
%
barometer
mb
20260507093114 55 0.0 0.0 0.00 0.00 0.00 89 1016.0
20260507090135 55 0.0 0.0 0.00 0.00 0.00 88 1016.1
20260507083113 55 113 2.0 4.0 0.00 0.00 0.00 88 1016.4
20260507080115 56 113 1.0 3.0 0.00 0.00 0.00 87 1016.7
20260507073113 56 0.0 5.0 0.00 0.00 0.00 86 1016.5
20260507070114 57 0.0 0.0 0.00 0.00 0.00 85 1016.5
20260507063113 57 0.0 0.0 0.00 0.00 0.00 85 1016.8
20260507060114 58 0.0 0.0 0.00 0.00 0.00 85 1016.8
20260507053114 58 0.0 0.0 0.00 0.00 0.00 83 1016.8
20260507050113 59 270 1.0 3.0 0.00 0.00 0.00 81 1016.6
20260507043114 59 270 2.0 4.0 0.00 0.00 0.00 79 1016.6
20260507040112 60 270 4.0 8.0 0.00 0.00 0.00 78 1016.4
20260507033133 61 270 5.0 10.0 0.00 0.00 0.00 76 1016.0
20260507030233 62 270 7.0 11.0 0.00 0.00 0.00 72 1015.8
20260507023113 64 270 7.0 12.0 0.00 0.00 0.00 69 1015.7
20260507020112 65 270 8.0 12.0 0.00 0.00 0.00 67 1015.3
20260507013112 67 270 8.0 12.0 0.00 0.00 0.00 66 1015.1
20260507010112 67 270 9.0 16.0 0.00 0.00 0.00 65 1015.2
20260507003112 68 293 10.0 17.0 0.00 0.00 0.00 65 1015.1
20260507000133 69 293 9.0 17.0 0.00 0.00 0.00 64 1014.9
20260506233112 70 270 9.0 15.0 0.00 0.00 0.00 62 1014.9
20260506230112 70 270 9.0 16.0 0.00 0.00 0.00 61 1014.9
20260506223112 70 270 11.0 19.0 0.00 0.00 0.00 63 1015.1
20260506220112 71 248 11.0 20.0 0.00 0.00 0.00 63 1015.4
20260506213112 71 270 11.0 19.0 0.00 0.00 0.00 62 1015.8
20260506210111 71 270 10.0 18.0 0.00 0.00 0.00 62 1015.7
20260506203111 71 248 8.0 17.0 0.00 0.00 0.00 59 1016.0
20260506200132 71 270 7.0 15.0 0.00 0.00 0.00 58 1016.3
20260506193113 69 338 7.0 16.0 0.00 0.00 0.00 59 1016.5
20260506190131 67 270 7.0 19.0 0.00 0.00 0.00 62 1016.9
20260506183111 65 293 7.0 14.0 0.00 0.00 0.00 65 1017.1
20260506180112 63 293 8.0 16.0 0.00 0.00 0.00 67 1017.3
20260506173111 62 293 8.0 16.0 0.00 0.00 0.00 68 1017.6
20260506170111 61 293 6.0 12.0 0.00 0.00 0.00 71 1017.5
20260506163112 59 293 6.0 12.0 0.00 0.00 0.00 74 1017.4
20260506160113 58 338 5.0 11.0 0.00 0.00 0.00 76 1017.5
20260506153114 58 315 3.0 9.0 0.00 0.00 0.00 77 1017.6
20260506150113 56 68 1.0 4.0 0.00 0.00 0.00 85 1017.6
20260506143113 53 68 3.0 4.0 0.00 0.05 0.00 89 1017.5
20260506140133 51 158 3.0 5.0 0.00 0.05 0.00 90 1017.3
20260506133114 50 158 1.0 3.0 0.00 0.05 0.00 90 1017.1
20260506130114 50 158 1.0 5.0 0.00 0.05 0.00 89 1016.8
20260506123113 50 135 2.0 6.0 0.00 0.16 0.00 89 1016.5
20260506120113 50 135 2.0 7.0 0.00 0.16 0.00 89 1016.3
20260506113114 50 135 3.0 6.0 0.00 0.16 0.00 89 1016.5
20260506110114 50 135 3.0 5.0 0.00 0.16 0.00 89 1016.3
20260506103112 51 113 2.0 4.0 0.00 0.20 0.00 88 1016.3
20260506100132 51 293 1.0 4.0 0.00 0.20 0.00 87 1016.1